Appleton, MN

6:35 PM CST on November 11, 2019 (GMT -0600)
Appleton Municipal

Weather History for KAQP - August, 2019

Change the Weather History Date:

Thursday, August 8, 2019

  Actual Average Record
Temperature  
Mean Temperature 64 °F -  
Max Temperature 77 °F 77 °F 95 °F (2001)
Min Temperature 51 °F 55 °F 35 °F (2003)
Degree Days  
Heating Degree Days 1    
Growing Degree Days 14 (Base 50)    
Moisture  
Dew Point 51 °F    
Average Humidity 64    
Maximum Humidity 94    
Minimum Humidity 31    
Precipitation  
Precipitation 0.00 in - - ()
Sea Level Pressure  
Sea Level Pressure 29.97 in    
Wind  
Wind Speed 3 mph (NW)    
Max Wind Speed 15 mph    
Max Gust Speed 21 mph    
Visibility 10 miles    
Events      
Averages and records for this station are not official NWS values.
T = Trace of Precipitation, MM = Missing Value Source: NWS Daily Summary

Daily Weather History Graph

Daily Weather History Graph

Search for Another Location

Airport or City:

Astronomy

Aug. 08, 2019 Rise Set
Actual Time 6:16 AM CDT 8:41 PM CDT
Civil Twilight 5:43 AM CDT 9:14 PM CDT
Nautical Twilight 5:02 AM CDT 9:55 PM CDT
Astronomical Twilight 4:15 AM CDT 10:42 PM CDT
Moon 3:19 PM CDT (8/8) 12:41 AM CDT (8/8)
Length of Visible Light 15h 31m
Length of Day
14h 25m
First Quarter, 60% of the Moon is Illuminated
Aug 8
First Quarter
Aug 15
Full
Aug 23
Last Quarter
Aug 30
New
Sep 5
First Quarter

Hourly Weather History & Observations

Time (CDT) Temp. Dew Point Humidity Pressure Visibility Wind Dir Wind Speed Gust Speed Precip Events Conditions
12:00 AM 62.6 °F 55.4 °F 77% 29.94 in 10.0 mi NW 3.5 mph - N/A   Clear
12:10 AM 60.8 °F 53.6 °F 77% 29.94 in 10.0 mi Calm Calm - N/A   Clear
12:34 AM 60.8 °F 53.6 °F 77% 29.94 in 10.0 mi NNW 4.6 mph - N/A   Clear
12:51 AM 59.0 °F 53.6 °F 82% 29.95 in 10.0 mi Calm Calm - N/A   Clear
1:16 AM 57.2 °F 53.6 °F 88% 29.95 in 10.0 mi Calm Calm - N/A   Clear
1:31 AM 57.2 °F 53.6 °F 88% 29.95 in 10.0 mi Calm Calm - N/A   Clear
1:53 AM 57.2 °F 53.6 °F 88% 29.95 in 10.0 mi Calm Calm - N/A   Clear
2:11 AM 55.4 °F 51.8 °F 88% 29.95 in 10.0 mi Calm Calm - N/A   Clear
2:30 AM 55.4 °F 51.8 °F 88% 29.95 in 10.0 mi Calm Calm - N/A   Clear
2:55 AM 53.6 °F 50.0 °F 88% 29.95 in 10.0 mi Calm Calm - N/A   Clear
3:12 AM 53.6 °F 50.0 °F 88% 29.95 in 10.0 mi Calm Calm - N/A   Clear
3:31 AM 53.6 °F 51.8 °F 94% 29.95 in 10.0 mi Calm Calm - N/A   Clear
3:51 AM 55.4 °F 50.0 °F 82% 29.95 in 10.0 mi Calm Calm - N/A   Clear
4:11 AM 53.6 °F 50.0 °F 88% 29.95 in 10.0 mi Calm Calm - N/A   Clear
4:31 AM 53.6 °F 51.8 °F 94% 29.95 in 10.0 mi Calm Calm - N/A   Clear
4:51 AM 51.8 °F 48.2 °F 88% 29.95 in 10.0 mi Calm Calm - N/A   Clear
5:10 AM 51.8 °F 48.2 °F 88% 29.95 in 7.0 mi Calm Calm - N/A   Clear
5:33 AM 51.8 °F 50.0 °F 94% 29.95 in 10.0 mi Calm Calm - N/A   Clear
5:51 AM 51.8 °F 48.2 °F 88% 29.96 in 7.0 mi Calm Calm - N/A   Clear
6:15 AM 51.8 °F 48.2 °F 88% 29.96 in 10.0 mi Calm Calm - N/A   Clear
7:11 AM 51.8 °F 50.0 °F 94% 29.97 in 10.0 mi Calm Calm - N/A   Clear
7:35 AM 55.4 °F 53.6 °F 94% 29.97 in 10.0 mi Calm Calm - N/A   Clear
7:51 AM 57.2 °F 55.4 °F 94% 29.97 in 10.0 mi Calm Calm - N/A   Clear
8:11 AM 59.0 °F 55.4 °F 88% 29.98 in 10.0 mi Calm Calm - N/A   Clear
8:31 AM 60.8 °F 55.4 °F 82% 29.98 in 10.0 mi Calm Calm - N/A   Clear
8:51 AM 62.6 °F 55.4 °F 77% 29.98 in 10.0 mi Calm Calm - N/A   Clear
9:10 AM 64.4 °F 55.4 °F 73% 29.98 in 10.0 mi Calm Calm - N/A   Clear
9:33 AM 66.2 °F 53.6 °F 64% 29.99 in 10.0 mi Calm Calm - N/A   Clear
9:51 AM 66.2 °F 53.6 °F 64% 29.99 in 10.0 mi Calm Calm - N/A   Clear
10:10 AM 68.0 °F 53.6 °F 60% 29.99 in 10.0 mi Calm Calm - N/A   Clear
10:31 AM 69.8 °F 53.6 °F 56% 29.99 in 10.0 mi Calm Calm - N/A   Clear
10:52 AM 71.6 °F 50.0 °F 46% 29.99 in 10.0 mi West 10.4 mph - N/A   Clear
11:11 AM 71.6 °F 51.8 °F 50% 29.99 in 10.0 mi West 3.5 mph - N/A   Clear
11:33 AM 73.4 °F 51.8 °F 47% 29.99 in 10.0 mi WSW 9.2 mph - N/A   Clear
11:51 AM 73.4 °F 48.2 °F 41% 29.99 in 10.0 mi West 6.9 mph 17.3 mph N/A   Clear
12:11 PM 75.2 °F 46.4 °F 36% 29.99 in 10.0 mi West 10.4 mph - N/A   Clear
12:31 PM 75.2 °F 42.8 °F 31% 29.99 in 10.0 mi NW 8.1 mph 20.7 mph N/A   Clear
12:50 PM 75.2 °F 46.4 °F 36% 29.99 in 10.0 mi WNW 9.2 mph - N/A   Clear
1:12 PM 75.2 °F 46.4 °F 36% 29.99 in 10.0 mi NW 10.4 mph 17.3 mph N/A   Clear
1:30 PM 75.2 °F 46.4 °F 36% 29.98 in 10.0 mi WNW 11.5 mph 17.3 mph N/A   Clear
1:52 PM 75.2 °F 44.6 °F 34% 29.98 in 10.0 mi NW 11.5 mph 17.3 mph N/A   Clear
2:11 PM 75.2 °F 44.6 °F 34% 29.98 in 10.0 mi NW 11.5 mph 17.3 mph N/A   Clear
2:30 PM 77.0 °F 46.4 °F 34% 29.98 in 10.0 mi NW 13.8 mph 18.4 mph N/A   Clear
2:52 PM 77.0 °F 48.2 °F 36% 29.97 in 10.0 mi NNW 15.0 mph 20.7 mph N/A   Clear
3:11 PM 75.2 °F 48.2 °F 38% 29.98 in 10.0 mi NW 13.8 mph 18.4 mph N/A   Clear
3:32 PM 77.0 °F 48.2 °F 36% 29.97 in 10.0 mi NW 13.8 mph 17.3 mph N/A   Clear
3:51 PM 75.2 °F 48.2 °F 38% 29.97 in 10.0 mi NW 10.4 mph 19.6 mph N/A   Clear
4:11 PM 77.0 °F 48.2 °F 36% 29.97 in 10.0 mi WNW 10.4 mph - N/A   Clear
4:31 PM 77.0 °F 48.2 °F 36% 29.97 in 10.0 mi NNW 11.5 mph 16.1 mph N/A   Clear
4:52 PM 75.2 °F 48.2 °F 38% 29.96 in 10.0 mi NW 11.5 mph 17.3 mph N/A   Clear
5:13 PM 75.2 °F 48.2 °F 38% 29.96 in 10.0 mi NW 15.0 mph 18.4 mph N/A   Clear
5:31 PM 75.2 °F 48.2 °F 38% 29.95 in 10.0 mi NNW 9.2 mph - N/A   Clear
5:51 PM 75.2 °F 48.2 °F 38% 29.95 in 10.0 mi NNW 9.2 mph - N/A   Clear
6:11 PM 75.2 °F 48.2 °F 38% 29.95 in 10.0 mi NNW 10.4 mph 18.4 mph N/A   Clear
6:31 PM 75.2 °F 48.2 °F 38% 29.95 in 10.0 mi NW 9.2 mph - N/A   Clear
6:53 PM 73.4 °F 48.2 °F 41% 29.95 in 10.0 mi NW 4.6 mph - N/A   Clear
7:13 PM 73.4 °F 48.2 °F 41% 29.95 in 10.0 mi Calm Calm - N/A   Clear
7:31 PM 73.4 °F 51.8 °F 47% 29.95 in 10.0 mi NNW 3.5 mph - N/A   Clear
7:53 PM 71.6 °F 51.8 °F 50% 29.95 in 10.0 mi Calm Calm - N/A   Clear
8:10 PM 69.8 °F 51.8 °F 53% 29.95 in 10.0 mi Calm Calm - N/A   Clear
8:32 PM 66.2 °F 51.8 °F 60% 29.96 in 10.0 mi Calm Calm - N/A   Clear
8:51 PM 64.4 °F 51.8 °F 64% 29.96 in 10.0 mi Calm Calm - N/A   Clear
9:10 PM 64.4 °F 51.8 °F 64% 29.97 in 10.0 mi Calm Calm - N/A   Clear
9:31 PM 60.8 °F 51.8 °F 72% 29.98 in 10.0 mi Calm Calm - N/A   Clear
9:53 PM 60.8 °F 51.8 °F 72% 29.99 in 10.0 mi Calm Calm - N/A   Clear
10:11 PM 57.2 °F 51.8 °F 82% 30.00 in 10.0 mi Calm Calm - N/A   Clear
10:34 PM 60.8 °F 51.8 °F 72% 30.00 in 10.0 mi Calm Calm - N/A   Clear
10:51 PM 57.2 °F 51.8 °F 82% 30.00 in 10.0 mi Calm Calm - N/A   Clear
11:10 PM 57.2 °F 51.8 °F 82% 30.00 in 10.0 mi Calm Calm - N/A   Clear
11:32 PM 59.0 °F 51.8 °F 77% 30.00 in 10.0 mi Calm Calm - N/A   Clear
11:53 PM 55.4 °F 50.0 °F 82% 30.00 in 10.0 mi Calm Calm - N/A   Clear